Fort Drum, NY

9:54 PM EST on December 13, 2019 (GMT -0500)
Wheeler-Sack Army Air Field

Weather History for KGTB - November, 2019

Change the Weather History Date:

Thursday, November 14, 2019

  Actual Average Record
Temperature  
Mean Temperature 25 °F -  
Max Temperature 34 °F 42 °F 64 °F (2011)
Min Temperature 17 °F 27 °F 10 °F (1996)
Degree Days  
Heating Degree Days 40    
Moisture  
Dew Point 18 °F    
Average Humidity 67    
Maximum Humidity 80    
Minimum Humidity 56    
Precipitation  
Precipitation 0.00 in - - ()
Snow  
Snow 0.00 in - - ()
Snow Depth 5.00 in    
Sea Level Pressure  
Sea Level Pressure 30.21 in    
Wind  
Wind Speed 13 mph (South)    
Max Wind Speed 21 mph    
Max Gust Speed 22 mph    
Visibility 9 miles    
Events Snow    
Averages and records for this station are not official NWS values.
T = Trace of Precipitation, MM = Missing Value Source: NWS Daily Summary

Daily Weather History Graph

Daily Weather History Graph

Search for Another Location

Airport or City:

Astronomy

Nov. 14, 2019 Rise Set
Actual Time 6:56 AM EST 4:37 PM EST
Civil Twilight 6:25 AM EST 5:08 PM EST
Nautical Twilight 5:50 AM EST 5:43 PM EST
Astronomical Twilight 5:16 AM EST 6:17 PM EST
Moon 6:18 PM EST 8:51 AM EST
Length of Visible Light 10h 43m
Length of Day
9h 41m
Waning Gibbous, 95% of the Moon is Illuminated
Nov 14
Waning Gibbous
Nov 19
Last Quarter
Nov 26
New
Dec 4
First Quarter
Dec 12
Full

Hourly Weather History & Observations

Time (EST) Temp. Windchill Dew Point Humidity Pressure Visibility Wind Dir Wind Speed Gust Speed Precip Events Conditions
12:26 AM 17.6 °F 7.3 °F 8.6 °F 68% 30.35 in 10.0 mi SE 8.1 mph - N/A Snow Light Snow
12:43 AM 17.6 °F 5.7 °F 10.4 °F 73% 30.35 in 10.0 mi SE 10.4 mph - N/A   Overcast
12:56 AM 17.4 °F 6.2 °F 10.6 °F 75% 30.33 in 10.0 mi SE 9.2 mph - 0.00 in   Overcast
1:56 AM 18.3 °F 4.6 °F 9.1 °F 67% 30.32 in 10.0 mi SE 13.8 mph - N/A   Overcast
2:56 AM 19.0 °F 4.5 °F 8.4 °F 63% 30.27 in 10.0 mi SSE 16.1 mph - N/A   Overcast
3:56 AM 19.4 °F 3.2 °F 8.8 °F 63% 30.24 in 10.0 mi SSE 20.7 mph - N/A   Overcast
4:56 AM 20.1 °F 5.4 °F 9.5 °F 63% 30.23 in 10.0 mi SSE 17.3 mph - N/A   Overcast
5:56 AM 21.2 °F 8.3 °F 10.2 °F 63% 30.22 in 10.0 mi SSE 13.8 mph - N/A   Overcast
6:56 AM 22.5 °F 12.4 °F 11.3 °F 62% 30.23 in 10.0 mi SSE 9.2 mph - N/A   Overcast
7:56 AM 24.4 °F 13.5 °F 12.2 °F 60% 30.24 in 10.0 mi SSE 11.5 mph - N/A   Overcast
8:22 AM 24.8 °F 11.9 °F 14.0 °F 64% 30.24 in 10.0 mi South 16.1 mph - N/A Snow Light Snow
8:29 AM 24.8 °F 11.1 °F 15.8 °F 69% 30.24 in 8.0 mi South 18.4 mph - N/A Snow Light Snow
8:49 AM 24.8 °F 11.9 °F 17.6 °F 74% 30.24 in 8.0 mi South 16.1 mph - N/A   Overcast
8:53 AM 24.8 °F 11.9 °F 17.6 °F 74% 30.24 in 9.0 mi South 16.1 mph - N/A   Overcast
8:56 AM 24.3 °F 11.7 °F 17.4 °F 75% 30.24 in 10.0 mi South 15.0 mph - 0.00 in   Overcast
8:57 AM 24.8 °F 11.5 °F 17.6 °F 74% 30.24 in 9.0 mi South 17.3 mph - N/A Snow Light Snow
9:07 AM 24.8 °F 13.4 °F 17.6 °F 74% 30.24 in 6.0 mi South 12.7 mph - N/A Snow Light Snow
9:22 AM 24.8 °F 12.9 °F 17.6 °F 74% 30.24 in 9.0 mi SSE 13.8 mph - N/A   Overcast
9:24 AM 24.8 °F 12.9 °F 17.6 °F 74% 30.24 in 9.0 mi SSE 13.8 mph - N/A Snow Light Snow
9:44 AM 24.8 °F 12.4 °F 17.6 °F 74% 30.24 in 9.0 mi SSE 15.0 mph - N/A Snow Light Snow
9:54 AM 24.8 °F 14.0 °F 17.6 °F 74% 30.24 in 7.0 mi SSE 11.5 mph - N/A Snow Light Snow
9:56 AM 24.8 °F 12.4 °F 17.6 °F 74% 30.24 in 6.0 mi SSE 15.0 mph - 0.00 in Snow Light Snow
10:26 AM 24.8 °F 14.0 °F 19.4 °F 80% 30.24 in 5.0 mi SSE 11.5 mph - N/A Snow Light Snow
10:36 AM 24.8 °F 14.0 °F 19.4 °F 80% 30.24 in 7.0 mi SSE 11.5 mph - N/A Snow Light Snow
10:39 AM 24.8 °F 14.6 °F 19.4 °F 80% 30.24 in 8.0 mi SSE 10.4 mph - N/A   Overcast
10:56 AM 25.9 °F 14.3 °F 19.6 °F 77% 30.23 in 10.0 mi South 13.8 mph - 0.00 in   Overcast
11:46 AM 28.4 °F 17.5 °F 19.4 °F 69% 30.21 in 10.0 mi SSW 13.8 mph - N/A   Overcast
11:56 AM 28.9 °F 17.3 °F 20.3 °F 70% 30.21 in 10.0 mi South 16.1 mph - N/A   Overcast
12:56 PM 30.6 °F 19.0 °F 20.1 °F 65% 30.19 in 10.0 mi South 17.3 mph - N/A   Overcast
1:56 PM 31.5 °F 20.9 °F 19.9 °F 62% 30.17 in 10.0 mi SSW 15.0 mph - N/A   Overcast
2:26 PM 32.0 °F 22.5 °F 19.4 °F 60% 30.17 in 10.0 mi SSW 12.7 mph - N/A   Overcast
2:56 PM 31.6 °F 21.6 °F 19.8 °F 62% 30.17 in 10.0 mi SSW 13.8 mph - N/A   Overcast
3:56 PM 31.6 °F 21.6 °F 19.8 °F 62% 30.16 in 10.0 mi South 13.8 mph - N/A   Overcast
4:56 PM 31.6 °F 22.1 °F 20.5 °F 63% 30.17 in 10.0 mi SSW 12.7 mph - N/A   Overcast
5:56 PM 31.8 °F 22.3 °F 20.3 °F 62% 30.17 in 10.0 mi SSW 12.7 mph - N/A   Overcast
6:56 PM 32.5 °F 23.2 °F 19.8 °F 59% 30.18 in 10.0 mi SSW 12.7 mph - N/A   Overcast
7:06 PM 32.0 °F 22.1 °F 19.4 °F 60% 30.18 in 10.0 mi SSW 13.8 mph - N/A   Overcast
7:56 PM 33.4 °F 23.9 °F 19.4 °F 56% 30.17 in 10.0 mi SSW 13.8 mph - N/A   Overcast
8:56 PM 33.3 °F 24.1 °F 20.1 °F 59% 30.17 in 10.0 mi SW 12.7 mph - N/A Snow Light Snow
8:57 PM 33.8 °F 24.8 °F 19.4 °F 56% 30.17 in 10.0 mi SW 12.7 mph - N/A Snow Light Snow
8:58 PM 33.8 °F 24.8 °F 19.4 °F 56% 30.17 in 10.0 mi SSW 12.7 mph - N/A Snow Light Snow
9:09 PM 33.8 °F 24.3 °F 19.4 °F 56% 30.17 in 10.0 mi SSW 13.8 mph - N/A   Overcast
9:49 PM 33.8 °F 23.5 °F 23.0 °F 65% 30.16 in 10.0 mi SW 16.1 mph 21.9 mph N/A   Overcast
9:56 PM 33.6 °F 24.1 °F 23.5 °F 67% 30.16 in 10.0 mi SSW 13.8 mph 21.9 mph N/A   Overcast
10:36 PM 33.8 °F 25.3 °F 23.0 °F 65% 30.16 in 10.0 mi SW 11.5 mph - N/A   Overcast
10:56 PM 33.8 °F 23.9 °F 23.7 °F 67% 30.15 in 10.0 mi SW 15.0 mph - N/A   Overcast
11:06 PM 33.8 °F 24.8 °F 24.8 °F 70% 30.15 in 10.0 mi SSW 12.7 mph - N/A   Overcast
11:16 PM 33.8 °F 25.3 °F 24.8 °F 70% 30.14 in 10.0 mi SSW 11.5 mph - N/A   Overcast
11:56 PM 34.2 °F 24.8 °F 24.6 °F 68% 30.13 in 10.0 mi SSW 13.8 mph - N/A   Overcast